User: anonymous   Login
Location: Franzen
(48.6167°N, 15.3833°E)
Time: 04:14:30
(UTC+00:00)
Language:

Cosmos 1825 - Orbit

View from above orbital plane
View from above orbital plane
View from above satellite
View from above satellite

Ground track
Ground track

The orbit data is extracted from the following two-line orbital elements,

1 17566U 87024A   21174.55443648  .00000891  00000-0  39095-4 0  9998
2 17566  82.5053 273.2047 0005008 124.9829 235.1877 15.20666237876409
Epoch (UTC): 23 June 2021 13:18:23
Eccentricity: 0.0005008
inclination: 82.5053°
perigee height: 500 km
apogee height: 507 km
right ascension of ascending node: 273.2047°
argument of perigee: 124.9829°
revolutions per day: 15.20666237
mean anomaly at epoch: 235.1877°
orbit number at epoch: 87640

The dashed part of the orbit path shows where the satellite is in the earth's shadow,  

DLR